User: anonymous   Login
Location: Unspecified
(0.0000°N, 0.0000°E)
Time: 16:43:38
(UTC+00:00)
Language:

USA 158 - Orbit

View from above orbital plane
View from above orbital plane
View from above satellite
View from above satellite

Ground track
Ground track

The orbit data is extracted from the following two-line orbital elements,

1 26770U 01020A   16362.21817790 0.00000000  00000-0  00000-0 0    01
2 26770   6.0950  47.6169 0014408  47.5727 312.5803  0.98834359    07
Epoch (UTC): 27 December 2016 05:14:10
Eccentricity: 0.0014408
inclination: 6.0950°
perigee height: 36133 km
apogee height: 36255 km
right ascension of ascending node: 47.6169°
argument of perigee: 47.5727°
revolutions per day: 0.98834359
mean anomaly at epoch: 312.5803°
orbit number at epoch: 0

The dashed part of the orbit path shows where the satellite is in the earth's shadow,  

DLR